TimeCDT,TemperatureF,Dew PointF,Humidity,Sea Level PressureIn,VisibilityMPH,Wind Direction,Wind SpeedMPH,Gust SpeedMPH,PrecipitationIn,Events,Conditions,WindDirDegrees,DateUTC
12:52 AM,24.1,21.9,91,30.14,-9999.0,NNW,5.8,-,N/A,,Unknown,340,2013-04-16 05:52:00
1:52 AM,24.1,21.0,88,30.14,-9999.0,NNW,5.8,-,N/A,,Unknown,340,2013-04-16 06:52:00
2:52 AM,21.9,19.9,92,30.14,-9999.0,NW,6.9,-,N/A,,Unknown,320,2013-04-16 07:52:00
3:52 AM,19.9,17.1,89,30.15,-9999.0,NNW,8.1,-,N/A,,Unknown,330,2013-04-16 08:52:00
4:52 AM,16.0,14.0,92,30.17,-9999.0,North,5.8,-,N/A,,Unknown,350,2013-04-16 09:52:00
5:52 AM,21.9,19.9,92,30.22,-9999.0,North,4.6,-,N/A,,Unknown,350,2013-04-16 10:52:00
6:52 AM,23.0,21.0,92,30.25,-9999.0,North,4.6,-,N/A,,Unknown,360,2013-04-16 11:52:00
7:52 AM,23.0,21.9,96,30.27,-9999.0,NNW,5.8,-,N/A,,Unknown,340,2013-04-16 12:52:00
8:52 AM,26.1,23.0,88,30.27,-9999.0,Variable,4.6,-,N/A,,Unknown,0,2013-04-16 13:52:00
9:52 AM,26.1,23.0,88,30.29,-9999.0,North,9.2,-,N/A,,Unknown,350,2013-04-16 14:52:00
10:52 AM,28.0,24.1,85,30.30,-9999.0,North,6.9,-,N/A,,Unknown,350,2013-04-16 15:52:00
11:52 AM,28.9,24.1,82,30.32,-9999.0,NNE,8.1,-,N/A,,Unknown,30,2013-04-16 16:52:00
12:52 PM,30.9,25.0,79,30.33,-9999.0,Variable,3.5,-,N/A,,Unknown,0,2013-04-16 17:52:00
1:52 PM,30.0,25.0,82,30.35,-9999.0,ENE,6.9,-,N/A,,Unknown,60,2013-04-16 18:52:00
2:52 PM,30.0,25.0,82,30.35,-9999.0,NE,5.8,-,N/A,,Unknown,50,2013-04-16 19:52:00
3:52 PM,30.9,24.1,76,30.36,-9999.0,NE,8.1,-,N/A,,Unknown,40,2013-04-16 20:52:00
4:52 PM,30.0,24.1,79,30.38,-9999.0,ENE,6.9,-,N/A,,Unknown,60,2013-04-16 21:52:00
5:52 PM,30.0,23.0,75,30.37,-9999.0,NE,6.9,-,N/A,,Unknown,40,2013-04-16 22:52:00
6:52 PM,30.0,23.0,75,30.40,-9999.0,ENE,4.6,-,N/A,,Unknown,60,2013-04-16 23:52:00
7:52 PM,28.9,21.9,75,30.39,-9999.0,NE,5.8,-,N/A,,Unknown,40,2013-04-17 00:52:00
8:52 PM,28.9,21.9,75,30.40,-9999.0,NE,4.6,-,N/A,,Unknown,50,2013-04-17 01:52:00
9:52 PM,28.0,21.9,78,30.42,-9999.0,NE,3.5,-,N/A,,Unknown,40,2013-04-17 02:52:00
10:52 PM,28.0,21.9,78,30.43,-9999.0,NE,4.6,-,N/A,,Unknown,50,2013-04-17 03:52:00
11:52 PM,28.0,21.9,78,30.43,-9999.0,NE,4.6,-,N/A,,Unknown,40,2013-04-17 04:52:00